EW6934 Weather Reports


time (UTC)temp
C
wind
direction
speed
KPH
gust
KPH
rain 1hr
cm
rain 24hr
cm
rain mn
cm
humidity
%
barometer
mb
20260505153055 21 159 8.0 16.1 0.00 0.00 0.00 45 1017.8
20260505151552 21 201 4.8 17.7 0.00 0.00 0.00 47 1018.1
20260505130111 17 0 0.0 6.4 0.00 0.00 0.00 56 1016.3
20260505124607 17 0 0.0 3.2 0.00 0.00 0.00 63 1016.2
20260505123105 16 0 0.0 1.6 0.00 0.00 0.00 63 1016.1
20260505121555 14 0 0.0 1.6 0.00 0.00 0.00 72 1016.0
20260505120101 12 0 0.0 1.6 0.00 0.00 0.00 77 1015.8
20260505114555 10 0 0.0 0.0 0.00 0.00 0.00 79 1015.6
20260505113056 10 0 0.0 0.0 0.00 0.00 0.00 78 1015.5
20260505111553 10 0 0.0 0.0 0.00 0.00 0.00 76 1015.4
20260505110104 11 25 0.0 1.6 0.00 0.00 0.00 73 1015.3
20260505101554 11 92 4.8 11.3 0.00 0.00 0.00 72 1015.5
20260505100056 10 0 0.0 1.6 0.00 0.00 0.00 79 1015.3
20260505094555 10 0 0.0 0.0 0.00 0.00 0.00 79 1015.3
20260505093054 10 0 0.0 0.0 0.00 0.00 0.00 77 1015.3
20260505091606 10 0 0.0 0.0 0.00 0.00 0.00 75 1015.4
20260505090054 11 0 0.0 0.0 0.00 0.00 0.00 73 1015.4
20260505084553 11 0 0.0 0.0 0.00 0.00 0.00 70 1015.4
20260505083056 12 0 0.0 0.0 0.00 0.00 0.00 67 1015.5
20260505081555 12 0 0.0 0.0 0.00 0.00 0.00 65 1015.5
20260505080106 13 0 0.0 1.6 0.00 0.00 0.00 61 1015.6
20260505074552 14 169 0.0 1.6 0.00 0.00 0.00 59 1015.4
20260505073058 15 0 0.0 3.2 0.00 0.00 0.00 56 1015.5
20260505071555 15 0 0.0 3.2 0.00 0.00 0.00 54 1015.5
20260505070056 15 137 0.0 6.4 0.00 0.00 0.00 53 1015.4
20260505064553 16 132 1.6 8.0 0.00 0.00 0.00 51 1015.4
20260505063112 16 128 1.6 11.3 0.00 0.00 0.00 50 1015.5
20260505061556 16 180 3.2 12.9 0.00 0.00 0.00 49 1015.7
20260505060100 17 119 6.4 19.3 0.00 0.00 0.00 47 1015.8
20260505054608 17 138 4.8 16.1 0.00 0.00 0.00 47 1015.8
20260505053103 17 108 3.2 12.9 0.00 0.00 0.00 48 1015.8
20260505051554 17 90 3.2 16.1 0.00 0.00 0.00 48 1015.8
20260505041605 17 87 3.2 14.5 0.00 0.00 0.00 49 1015.8
20260505040057 17 84 4.8 16.1 0.00 0.00 0.00 50 1015.8
20260505034557 18 131 6.4 14.5 0.00 0.00 0.00 49 1016.0
20260505033104 18 71 6.4 16.1 0.00 0.00 0.00 49 1016.1
20260505031604 18 91 4.8 12.9 0.00 0.00 0.00 48 1016.0
20260505030054 18 96 4.8 11.3 0.00 0.00 0.00 49 1016.1
20260505024603 18 92 3.2 9.7 0.00 0.00 0.00 49 1016.0
20260505023051 18 108 3.2 12.9 0.00 0.00 0.00 49 1015.9
20260505021555 18 109 1.6 9.7 0.00 0.00 0.00 48 1015.9
20260505020053 18 98 4.8 9.7 0.00 0.00 0.00 48 1015.7
20260505014607 19 108 4.8 12.9 0.00 0.00 0.00 49 1015.6
20260505013054 19 83 4.8 11.3 0.00 0.00 0.00 48 1015.5
20260505011603 19 105 3.2 8.0 0.00 0.00 0.00 51 1015.5
20260505010053 20 70 4.8 11.3 0.00 0.00 0.00 50 1015.3
20260505004553 20 90 4.8 8.0 0.00 0.00 0.00 50 1015.2
20260505003055 20 78 3.2 9.7 0.00 0.00 0.00 49 1015.0
20260505001554 21 85 4.8 11.3 0.00 0.00 0.00 48 1014.9
20260505000106 21 88 4.8 9.7 0.00 0.00 0.00 47 1014.9
20260504234555 22 81 3.2 11.3 0.00 0.00 0.00 45 1015.0
20260504233107 22 78 4.8 12.9 0.00 0.00 0.00 43 1014.8
20260504231552 22 119 3.2 14.5 0.00 0.00 0.00 41 1014.9
20260504230052 22 105 3.2 11.3 0.00 0.00 0.00 40 1014.8
20260504224557 23 110 3.2 12.9 0.00 0.00 0.00 38 1014.7
20260504223122 23 128 3.2 12.9 0.00 0.00 0.00 38 1014.7
20260504221549 23 202 3.2 16.1 0.00 0.00 0.00 36 1014.8
20260504220054 23 70 8.0 17.7 0.00 0.00 0.00 35 1014.7
20260504214552 23 94 6.4 16.1 0.00 0.00 0.00 37 1014.7
20260504213103 23 130 6.4 16.1 0.00 0.00 0.00 37 1014.8
20260504211601 23 175 8.0 25.7 0.00 0.00 0.00 37 1014.8
20260504210100 23 160 6.4 17.7 0.00 0.00 0.00 37 1014.9
20260504204557 23 119 8.0 20.9 0.00 0.00 0.00 35 1014.9
20260504203109 23 144 8.0 17.7 0.00 0.00 0.00 37 1014.9
20260504201601 23 114 4.8 17.7 0.00 0.00 0.00 39 1014.9
20260504200115 23 71 3.2 17.7 0.00 0.00 0.00 40 1015.0
20260504194602 23 169 6.4 22.5 0.00 0.00 0.00 41 1015.0
20260504193059 23 68 8.0 17.7 0.00 0.00 0.00 40 1015.2
20260504191602 23 90 3.2 17.7 0.00 0.00 0.00 37 1015.3
20260504190055 23 118 3.2 16.1 0.00 0.00 0.00 37 1015.4
20260504184601 23 113 6.4 17.7 0.00 0.00 0.00 38 1015.6
20260504183100 22 90 3.2 11.3 0.00 0.00 0.00 40 1015.9
20260504181604 22 0 4.8 14.5 0.00 0.00 0.00 40 1016.2
20260504174611 22 0 1.6 12.9 0.00 0.00 0.00 43 1016.3
20260504173100 22 146 4.8 11.3 0.00 0.00 0.00 43 1016.5
20260504171554 21 101 4.8 12.9 0.00 0.00 0.00 45 1016.6